Location: Chevoux
(46.3801°N, 4.9476°E)
Time: 07:04:20
(UTC+00:00)

NOSS 2-2 (C) - Visible Passes

Search period start: 11 May 2021 00:00
Search period end: 21 May 2021 00:00
Orbit: 458 x 1749 km, 63.3° (Epoch: 02 May)

Date Brightness Start Highest point End Pass type
(mag) Time Alt. Az. Time Alt. Az. Time Alt. Az.
11 May 5.5 19:49:30 10° NW 19:54:54 44° WSW 20:02:15 10° S visible
12 May 7.0 20:56:42 10° W 20:59:51 14° WSW 21:03:26 10° SW visible
13 May 6.5 20:09:52 10° WNW 20:14:32 23° WSW 20:20:19 10° SSW visible
15 May 7.3 20:33:31 10° WSW 20:33:57 10° WSW 20:34:24 10° WSW visible
16 May 7.0 19:44:39 10° WNW 19:48:41 18° WSW 19:53:28 10° SSW visible
